Погода во Фрежюсе

Франция     43°25′55″N   6°43′55″E
темп.,
°C
ветер,
м/с
пор.,
м/с
влажн.,
%
обл.,
%
осадки,
мм/ч
давл.,
гПа
погр.,
м
23 сентября, чт
чт2323:00+17ссз11720 0.0 102023
02:00+17с22700 0.0 102124
05:00+17с22731 0.0 102126
08:00+17ссз11730 0.0 102128
11:00+24ююв11504 0.0 1021726
14:00+24ююв43536 0.0 10211178
17:00+22ююв32580 0.0 1020643
20:00+18ююв01755 0.0 101956
24 сентября, пт
пт2423:00+16ссз11800 0.0 102027
02:00+16сз11790 0.0 101927
05:00+15сз11750 0.0 101829
08:00+16ссз11720 0.0 101830
11:00+23вюв22520 0.0 1018683
14:00+24юв33500 0.0 1018973
17:00+23юв335923 0.0 1017560
20:00+17в11845 0.0 101878
25 сентября, сб
сб2523:00+17ссв228390 0.0 101959
02:00+18ссв2279100 0.0 101864
05:00+18ссв2274100 0.0 101871
08:00+19ссв23735 0.0 101891
11:00+24в58625 0.0 1019831
14:00+25в696288 0.0 1018810
17:00+24в59645 0.0 1017714
20:00+20всв36870 0.0 1018311
26 сентября, вс
вс2623:00+20св23865 0.0 1018122
02:00+20св23805 0.0 1018112
05:00+19св238216 0.0 101895
08:00+21св378189 0.4 1017349
11:00+23в4775100 1.3 1018734
14:00+22в478296 2.5 1018636
17:00+22в458257 1.8 1017573
20:00+19ссз119492 2.8 101645
27 сентября, пн
пн2723:00+18св119449 0.6 101735
02:00+17сз11923 0.6 101624
05:00+16зсз1186100 0.0 101531
08:00+16ссз1182100 0.0 101528
11:00+22юв1165100 0.0 1015448
14:00+25вюв335282 0.0 10151156
17:00+24вюв326098 0.0 1014562
20:00+19в119031 0.0 101544